This is the latest recevied weather packets stored in our database for station/object CA2RRL-10. If no packets are shown the sender has not sent any weather packets the latest 1 day(s).
| Time | Temp. | Humidity | Pressure | Rain* | Wind** | Luminosity | Snow |
|---|---|---|---|---|---|---|---|
| 1777852112 | 20.56° C | 19% | 1031.4 hPa | - | - | - | - |
| 1777851212 | 21.11° C | 19% | 1031.2 hPa | - | - | - | - |
| 1777850312 | 22.22° C | 20% | 1031.1 hPa | - | - | - | - |
| 1777849412 | 22.22° C | 21% | 1030.9 hPa | - | - | - | - |
| 1777848512 | 22.78° C | 21% | 1030.8 hPa | - | - | - | - |
| 1777847612 | 23.33° C | 20% | 1030.7 hPa | - | - | - | - |
| 1777846711 | 23.89° C | 20% | 1030.5 hPa | - | - | - | - |
| 1777845811 | 24.44° C | 19% | 1030.5 hPa | - | - | - | - |
| 1777844911 | 23.89° C | 19% | 1030.3 hPa | - | - | - | - |
| 1777844011 | 25° C | 18% | 1030.2 hPa | - | - | - | - |
| 1777843111 | 26.11° C | 17% | 1029.9 hPa | - | - | - | - |
| 1777842211 | 27.22° C | 17% | 1029.6 hPa | - | - | - | - |
| 1777841311 | 27.22° C | 18% | 1029.7 hPa | - | - | - | - |
| 1777840411 | 27.22° C | 18% | 1029.6 hPa | - | - | - | - |
| 1777839511 | 27.78° C | 15% | 1029.6 hPa | - | - | - | - |
| 1777838611 | 28.33° C | 13% | 1029.6 hPa | - | - | - | - |
| 1777837711 | 28.89° C | 14% | 1029.4 hPa | - | - | - | - |
| 1777836811 | 29.44° C | 14% | 1029.4 hPa | - | - | - | - |
| 1777835910 | 29.44° C | 15% | 1029.5 hPa | - | - | - | - |
| 1777835010 | 30° C | 15% | 1029.3 hPa | - | - | - | - |
| 1777834110 | 30° C | 14% | 1029.3 hPa | - | - | - | - |
* Rain since midnight (hover to see other rain measurements)
** Current wind speed in m/s (hover to see current wind gust speed)